sat.trackr.live / text

‹ back to catalog

TIANHUI 4A

NORAD 50572 · 2021-134A

PAYLOAD ACTIVE UNKNOWN

§ Identity

Operator
Country
PRC
Launch date
2021-12-29
Launch site
JSC
Launch vehicle
Mass (kg)
RCS (m²)

External: N2YO · Heavens-Above · Gunter

§ Orbital elements

Epoch: 2026-05-25T04:30:58.077216Z

Period
93.13 min
Inclination
88.9708°
Eccentricity
0.0009526
Mean motion
15.46143945 rev/d
Perigee alt
421.5 km
Apogee alt
434.5 km
Semi-major
6,806.2 km
B*
1.0269e-4
RAAN
326.0024°
Arg perigee
142.6182°
Mean anomaly
217.5742°
Rev number
24,631

§ Raw data

TIANHUI 4A1 50572U 21134A   26145.18817219  .00005072  00000+0  10269-3 0  99992 50572  88.9708 326.0024 0009526 142.6182 217.5742 15.46143945246310

JSON: /api/v1/satellites/50572 · /tle

For live sub-satellite position, see the globe view (requires WebGL).

§ Visibility from observer

Set your observer location to see the next 7 days of passes ≥ 10°. The values pass through the URL so the page stays shareable.

No JS? Fill the form by hand. The geolocation button needs JavaScript.